Belle Glade FAWN current weather conditions

sailwx.info

Wind from 323 at 3 knots

Air temperature 16.3° C
Dewpoint 16.0° C

Last reported at 2020-Jan-25 13:00 UTC.
Time now 2020-Jan-25 13:53 UTC

Location: N 26°40' W 080°38'.
View on Google Maps.

See reports from other nearby stations

  
Tides and Currents Weather Stations Pressure Air Temp Water Temp Dewpoint Dewpoint Depression Visibility Wind Speed Wind Dir Waves Ship Positions
date/time (UTC)wind fromknots sea level pressurealtimeterstation pressurevisibilityair tempwater tempwave heightnotes
2020-Jan-25 13:00 323 3 16.3
2020-Jan-25 12:45 314 3 15.4
2020-Jan-25 12:30 308 3 14.8
2020-Jan-25 12:15 290 3 14.6
2020-Jan-25 12:00 271 3 14.7
2020-Jan-25 11:45 260 2 14.9
2020-Jan-25 11:30 289 3 15.1
2020-Jan-25 11:15 278 3 14.9
2020-Jan-25 11:00 262 2 15.2
2020-Jan-25 10:45 224 2 15.3
2020-Jan-25 10:30 226 3 15.6
2020-Jan-25 10:15 233 3 15.8
2020-Jan-25 10:00 263 2 15.9
2020-Jan-25 09:45 283 2 16.3
2020-Jan-25 09:30 276 2 16.2
2020-Jan-25 09:15 280 1 16.5
2020-Jan-25 09:00 285 1 16.3
2020-Jan-25 08:45 224 1 16.6
2020-Jan-25 08:30 207 1 17.1
2020-Jan-25 08:15 236 0 17.4
2020-Jan-25 08:00 251 0 17.7
2020-Jan-25 07:45 238 0 18.1
2020-Jan-25 07:30 182 2 18.3
2020-Jan-25 07:15 175 2 18.5
2020-Jan-25 07:00 165 3 18.6
2020-Jan-25 06:45 163 3 18.8
2020-Jan-25 06:30 162 3 18.9
2020-Jan-25 06:15 170 4 19.1
2020-Jan-25 06:00 180 4 19.2
2020-Jan-25 05:45 175 4 19.2
2020-Jan-25 05:30 167 5 19.2
2020-Jan-25 05:15 165 5 19.2
2020-Jan-25 05:00 166 5 19.3
2020-Jan-25 04:45 168 5 19.3
2020-Jan-25 04:30 159 5 19.2
2020-Jan-25 04:15 178 5 19.1
2020-Jan-25 04:00 194 5 19.4
2020-Jan-25 03:45 194 5 19.5
2020-Jan-25 03:30 200 6 19.6
2020-Jan-25 03:15 204 8 19.8
2020-Jan-25 03:00 217 9 19.9
2020-Jan-25 02:45 226 9 19.8
2020-Jan-25 02:30 214 7 19.7
2020-Jan-25 02:15 219 6 19.7
2020-Jan-25 02:00 213 6 19.4
2020-Jan-25 01:45 193 5 19.1
2020-Jan-25 01:30 163 4 18.8
2020-Jan-25 01:15 110 2 19.0
2020-Jan-25 01:00 074 2 19.2
2020-Jan-25 00:45 072 3 19.4
2020-Jan-25 00:30 056 3 19.7
2020-Jan-25 00:15 055 3 19.8
2020-Jan-25 00:00 075 2 20.1
2020-Jan-24 23:45 108 3 20.4
2020-Jan-24 23:30 101 4 20.9
2020-Jan-24 23:15 098 4 21.7
2020-Jan-24 23:00 114 5 22.2
2020-Jan-24 22:45 124 5 22.8
2020-Jan-24 22:30 091 5 23.4
2020-Jan-24 22:15 087 5 23.6
2020-Jan-24 22:00 087 6 24.1
2020-Jan-24 21:45 090 4 24.6
2020-Jan-24 21:30 105 4 24.3
2020-Jan-24 21:15 085 4 24.4
2020-Jan-24 21:00 099 4 24.8
2020-Jan-24 20:45 093 4 24.6
2020-Jan-24 20:30 098 4 24.6
2020-Jan-24 19:30 116 3 24.5
2020-Jan-24 19:15 101 4 24.4
2020-Jan-24 19:00 113 4 24.2
2020-Jan-24 18:45 101 4 24.1
2020-Jan-24 18:30 104 5 24.0
2020-Jan-24 18:15 110 6 23.8
2020-Jan-24 18:00 122 5 24.0
2020-Jan-24 17:45 152 4 24.1
2020-Jan-24 17:30 130 4 23.8
2020-Jan-24 17:15 121 4 23.6
2020-Jan-24 17:00 093 3 23.5
2020-Jan-24 16:45 112 3 23.1
2020-Jan-24 16:30 098 4 22.7
2020-Jan-24 16:15 108 3 22.7
2020-Jan-24 16:00 105 2 22.3
2020-Jan-24 15:45 112 3 21.7
2020-Jan-24 15:30 103 5 21.5
2020-Jan-24 15:15 114 4 21.3
2020-Jan-24 15:00 097 4 20.5
2020-Jan-24 14:45 083 3 20.1
2020-Jan-24 14:30 071 3 19.8
2020-Jan-24 14:15 071 4 19.4
2020-Jan-24 14:00 063 4 19.1
2020-Jan-24 13:45 065 4 18.8
2020-Jan-24 13:30 065 4 18.6
2020-Jan-24 13:15 061 3 18.4
2020-Jan-24 13:00 068 3 18.1
2020-Jan-24 12:45 054 4 18.0
2020-Jan-24 12:15 056 3 17.9
2020-Jan-24 12:00 073 3 18.0
2020-Jan-24 11:45 072 4 18.0
2020-Jan-24 11:30 052 4 18.0
2020-Jan-24 11:15 044 5 18.0
2020-Jan-24 11:00 057 4 18.1
2020-Jan-24 10:45 043 4 18.2
2020-Jan-24 10:30 055 4 18.3
2020-Jan-24 10:15 070 1 18.3
2020-Jan-24 10:00 068 1 18.3
2020-Jan-24 09:45 094 2 18.3
2020-Jan-24 09:30 137 2 18.3
2020-Jan-24 09:15 120 2 18.2
2020-Jan-24 09:00 089 1 18.2
2020-Jan-24 08:45 080 2 18.2
2020-Jan-24 08:30 081 2 18.2
2020-Jan-24 08:15 105 3 18.2
2020-Jan-24 08:00 099 4 18.2
2020-Jan-24 07:45 107 4 18.3
2020-Jan-24 07:30 112 4 18.3
2020-Jan-24 07:15 119 3 18.3
2020-Jan-24 07:00 082 3 18.4
2020-Jan-24 06:45 083 5 18.4
2020-Jan-24 06:30 094 3 18.4
2020-Jan-24 06:15 099 1 18.4
2020-Jan-24 06:00 150 1 18.4
2020-Jan-24 05:45 171 3 18.4
2020-Jan-24 05:30 202 4 18.4
2020-Jan-24 05:15 187 3 18.4
2020-Jan-24 05:00 125 1 18.3
2020-Jan-24 04:45 223 1 18.3
2020-Jan-24 04:30 233 3 18.2
2020-Jan-24 04:15 250 3 18.2
2020-Jan-24 04:00 230 1 18.2
2020-Jan-24 03:45 168 1 18.2
2020-Jan-24 03:30 141 0 18.1
2020-Jan-24 03:15 110 0 18.1
2020-Jan-24 03:00 150 0 18.1
2020-Jan-24 02:45 186 1 17.9
2020-Jan-24 02:30 164 1 17.7
2020-Jan-24 02:15 144 1 17.4
2020-Jan-24 02:00 129 1 17.7
2020-Jan-24 01:45 096 1 17.9
2020-Jan-24 01:30 127 2 18.3
2020-Jan-24 01:15 121 3 18.0
2020-Jan-24 01:00 091 2 18.2
2020-Jan-24 00:45 030 2 18.4
2020-Jan-24 00:30 020 0 19.0
2020-Jan-24 00:15 186 1 19.4
2020-Jan-24 00:00 199 3 19.7
2020-Jan-23 23:45 188 4 20.1
2020-Jan-23 23:30 191 7 20.6
2020-Jan-23 23:15 187 5 21.2
2020-Jan-23 23:00 110 2 21.3
2020-Jan-23 22:45 359 2 21.6
2020-Jan-23 22:30 025 1 22.4
2020-Jan-23 22:15 006 3 22.0
2020-Jan-23 22:00 024 3 23.0
2020-Jan-23 21:45 084 4 23.4
2020-Jan-23 21:30 098 7 23.3
2020-Jan-23 21:15 090 8 23.5
2020-Jan-23 21:00 095 7 23.6
2020-Jan-23 20:45 094 8 24.0
2020-Jan-23 20:30 101 9 23.5
2020-Jan-23 20:15 095 9 23.7
2020-Jan-23 20:00 096 8 23.5
2020-Jan-23 19:45 102 9 23.1
2020-Jan-23 19:30 108 10 23.3
2020-Jan-23 19:15 151 3 24.3
2020-Jan-23 19:00 188 2 23.6
2020-Jan-23 18:45 348 3 23.2
2020-Jan-23 18:30 015 5 22.9
2020-Jan-23 18:15 022 6 22.3
2020-Jan-23 18:00 014 7 22.1
2020-Jan-23 17:45 340 6 21.1
2020-Jan-23 17:30 357 7 21.1
2020-Jan-23 17:15 336 6 20.1
2020-Jan-23 17:00 340 7 20.2
2020-Jan-23 16:30 331 6 19.4
2020-Jan-23 16:15 350 6 19.1
2020-Jan-23 16:00 344 5 18.7
2020-Jan-23 15:45 337 6 18.6
2020-Jan-23 15:30 337 5 17.9
2020-Jan-23 15:15 346 5 17.7
2020-Jan-23 15:00 348 6 17.0
2020-Jan-23 14:45 351 7 16.9
2020-Jan-23 14:30 348 6 16.5
2020-Jan-23 14:15 346 6 16.0
2020-Jan-23 14:00 339 5 15.2
2020-Jan-23 13:45 347 5 14.6
2020-Jan-23 13:30 340 4 13.9
2020-Jan-23 13:15 333 4 12.9
2020-Jan-23 13:00 307 3 11.0